• In Hungary
  • List of Countries
  • For 7 days
  • Water Temperature
  • Satellite Maps
  • Weather Map
  • News
  • Weather Widgets
  • user-avatar
    Login

    Hourly Weather Uttarakhand

    Today, 21 October, Sunday

    Time Temperature Precipitation Wind Pressure Humidity
    00:00 +5°C° 0 mm 2 mps 580 mmHg 25%
    01:00 +5°C° 0 mm 2 mps 580 mmHg 22%
    02:00 +5°C° 0 mm 2 mps 579 mmHg 19%
    03:00 +5°C° 0 mm 2 mps 579 mmHg 19%
    04:00 +5°C° 0 mm 2 mps 579 mmHg 18%
    05:00 +5°C° 0 mm 2 mps 579 mmHg 18%
    06:00 +7°C° 0 mm 2 mps 581 mmHg 19%
    07:00 +9°C° 0 mm 2 mps 582 mmHg 21%
    08:00 +12°C° 0 mm 2 mps 583 mmHg 23%
    09:00 +14°C° 0 mm 1 mps 584 mmHg 21%
    10:00 +16°C° 0 mm 1 mps 585 mmHg 18%
    11:00 +20°C° 0 mm 1 mps 586 mmHg 16%
    12:00 +18°C° 0 mm 2 mps 586 mmHg 17%
    13:00 +18°C° 0 mm 2 mps 585 mmHg 18%
    14:00 +18°C° 0 mm 3 mps 584 mmHg 19%
    15:00 +15°C° 0 mm 2 mps 583 mmHg 25%
    16:00 +13°C° 0 mm 1 mps 582 mmHg 31%
    17:00 +10°C° 0 mm 1 mps 580 mmHg 37%
    18:00 +9°C° 0 mm 1 mps 580 mmHg 35%
    19:00 +8°C° 0 mm 1 mps 580 mmHg 33%
    20:00 +6°C° 0 mm 2 mps 580 mmHg 31%
    21:00 +6°C° 0 mm 2 mps 580 mmHg 29%
    22:00 +5°C° 0 mm 2 mps 580 mmHg 27%
    23:00 +5°C° 0 mm 2 mps 580 mmHg 26%

    Tomorrow, 22 October, Monday

    Time Temperature Precipitation Wind Pressure Humidity
    00:00 +5°C° 0 mm 2 mps 579 mmHg 25%
    01:00 +4°C° 0 mm 2 mps 579 mmHg 24%
    02:00 +4°C° 0 mm 2 mps 578 mmHg 23%
    03:00 +4°C° 0 mm 2 mps 578 mmHg 22%
    04:00 +4°C° 0 mm 2 mps 578 mmHg 22%
    05:00 +4°C° 0 mm 2 mps 578 mmHg 21%
    06:00 +6°C° 0 mm 2 mps 579 mmHg 21%
    07:00 +8°C° 0 mm 2 mps 580 mmHg 22%
    08:00 +11°C° 0 mm 1 mps 582 mmHg 22%
    09:00 +13°C° 0 mm 1 mps 583 mmHg 19%
    10:00 +16°C° 0 mm 1 mps 584 mmHg 17%
    11:00 +19°C° 0 mm 1 mps 584 mmHg 14%
    12:00 +19°C° 0 mm 1 mps 584 mmHg 15%
    13:00 +18°C° 0 mm 2 mps 583 mmHg 17%
    14:00 +17°C° 0 mm 2 mps 583 mmHg 18%
    15:00 +15°C° 0 mm 2 mps 581 mmHg 25%
    16:00 +12°C° 0 mm 1 mps 580 mmHg 33%
    17:00 +9°C° 0 mm 1 mps 579 mmHg 40%
    18:00 +8°C° 0 mm 1 mps 579 mmHg 38%
    19:00 +8°C° 0 mm 1 mps 579 mmHg 36%
    20:00 +6°C° 0 mm 2 mps 579 mmHg 35%
    21:00 +5°C° 0 mm 2 mps 579 mmHg 31%
    22:00 +5°C° 0 mm 2 mps 579 mmHg 28%
    23:00 +5°C° 0 mm 2 mps 578 mmHg 24%

    Day after tomorrow, 23 October, Tuesday

    Time Temperature Precipitation Wind Pressure Humidity
    00:00 +4°C° 0 mm 2 mps 578 mmHg 21%
    01:00 +4°C° 0 mm 2 mps 578 mmHg 19%
    02:00 +4°C° 0 mm 2 mps 578 mmHg 16%
    03:00 +4°C° 0 mm 2 mps 578 mmHg 15%
    04:00 +4°C° 0 mm 2 mps 577 mmHg 14%
    05:00 +4°C° 0 mm 2 mps 577 mmHg 13%
    06:00 +6°C° 0 mm 2 mps 579 mmHg 15%
    07:00 +8°C° 0 mm 2 mps 580 mmHg 17%
    08:00 +11°C° 0 mm 1 mps 581 mmHg 20%
    09:00 +13°C° 0 mm 1 mps 582 mmHg 18%
    10:00 +15°C° 0 mm 1 mps 583 mmHg 17%
    11:00 +18°C° 0 mm 1 mps 584 mmHg 15%
    12:00 +18°C° 0 mm 1 mps 584 mmHg 16%
    13:00 +17°C° 0 mm 2 mps 583 mmHg 18%
    14:00 +17°C° 0 mm 2 mps 582 mmHg 19%
    15:00 +14°C° 0 mm 2 mps 581 mmHg 27%
    16:00 +11°C° 0 mm 1 mps 580 mmHg 34%
    17:00 +9°C° 0 mm 1 mps 579 mmHg 42%
    18:00 +8°C° 0 mm 1 mps 579 mmHg 40%
    19:00 +7°C° 0 mm 1 mps 579 mmHg 39%
    20:00 +6°C° 0 mm 2 mps 579 mmHg 37%
    21:00 +5°C° 0 mm 2 mps 579 mmHg 34%
    22:00 +5°C° 0 mm 2 mps 579 mmHg 30%
    23:00 +5°C° 0 mm 2 mps 579 mmHg 27%

    24 October, Wednesday

    Time Temperature Precipitation Wind Pressure Humidity
    00:00 +4°C° 0 mm 2 mps 579 mmHg 24%
    01:00 +4°C° 0 mm 2 mps 578 mmHg 22%
    02:00 +4°C° 0 mm 2 mps 578 mmHg 19%
    03:00 +4°C° 0 mm 2 mps 578 mmHg 19%
    04:00 +4°C° 0 mm 2 mps 578 mmHg 18%
    05:00 +4°C° 0 mm 2 mps 578 mmHg 17%
    06:00 +6°C° 0 mm 2 mps 579 mmHg 18%
    07:00 +8°C° 0 mm 2 mps 580 mmHg 19%
    08:00 +10°C° 0 mm 2 mps 582 mmHg 21%
    09:00 +13°C° 0 mm 1 mps 583 mmHg 19%
    10:00 +15°C° 0 mm 1 mps 584 mmHg 18%
    11:00 +19°C° 0 mm 1 mps 585 mmHg 17%
    12:00 +19°C° 0 mm 1 mps 584 mmHg 18%
    13:00 +17°C° 0 mm 2 mps 583 mmHg 19%
    14:00 +17°C° 0 mm 2 mps 583 mmHg 20%
    15:00 +15°C° 0 mm 2 mps 582 mmHg 27%
    16:00 +12°C° 0 mm 1 mps 580 mmHg 35%
    17:00 +8°C° 0 mm 0 mps 579 mmHg 42%
    18:00 +9°C° 0 mm 1 mps 579 mmHg 40%
    19:00 +8°C° 0 mm 1 mps 580 mmHg 39%
    20:00 +6°C° 0 mm 2 mps 580 mmHg 37%
    21:00 +6°C° 0 mm 2 mps 580 mmHg 34%
    22:00 +6°C° 0 mm 2 mps 580 mmHg 31%
    23:00 +5°C° 0 mm 2 mps 580 mmHg 29%

    25 October, Thursday

    Time Temperature Precipitation Wind Pressure Humidity
    00:00 +5°C° 0 mm 2 mps 579 mmHg 27%
    01:00 +5°C° 0 mm 2 mps 579 mmHg 25%
    02:00 +5°C° 0 mm 2 mps 578 mmHg 23%
    03:00 +4°C° 0 mm 2 mps 578 mmHg 22%
    04:00 +4°C° 0 mm 2 mps 579 mmHg 21%
    05:00 +4°C° 0 mm 2 mps 579 mmHg 20%
    06:00 +6°C° 0 mm 2 mps 580 mmHg 21%
    07:00 +9°C° 0 mm 1 mps 581 mmHg 21%
    08:00 +11°C° 0 mm 1 mps 583 mmHg 22%
    09:00 +13°C° 0 mm 1 mps 584 mmHg 20%
    10:00 +16°C° 0 mm 1 mps 584 mmHg 19%
    11:00 +19°C° 0 mm 1 mps 585 mmHg 17%
    12:00 +18°C° 0 mm 1 mps 585 mmHg 19%
    13:00 +17°C° 0 mm 2 mps 584 mmHg 20%
    14:00 +17°C° 0 mm 2 mps 584 mmHg 22%
    15:00 +14°C° 0 mm 1 mps 583 mmHg 29%
    16:00 +12°C° 0 mm 1 mps 582 mmHg 37%
    17:00 +8°C° 0 mm 0 mps 580 mmHg 45%
    18:00 +8°C° 0 mm 1 mps 581 mmHg 43%
    19:00 +8°C° 0 mm 1 mps 581 mmHg 42%
    20:00 +6°C° 0 mm 2 mps 581 mmHg 41%
    21:00 +6°C° 0 mm 2 mps 581 mmHg 38%
    22:00 +6°C° 0 mm 2 mps 581 mmHg 35%
    23:00 +5°C° 0 mm 2 mps 581 mmHg 32%

    26 October, Friday

    Time Temperature Precipitation Wind Pressure Humidity
    00:00 +5°C° 0 mm 2 mps 580 mmHg 29%
    01:00 +5°C° 0 mm 2 mps 580 mmHg 27%
    02:00 +5°C° 0 mm 2 mps 580 mmHg 24%
    03:00 +5°C° 0 mm 2 mps 580 mmHg 22%
    04:00 +4°C° 0 mm 2 mps 580 mmHg 21%
    05:00 +4°C° 0 mm 2 mps 580 mmHg 19%
    06:00 +6°C° 0 mm 2 mps 581 mmHg 19%
    07:00 +9°C° 0 mm 1 mps 583 mmHg 20%
    08:00 +11°C° 0 mm 1 mps 584 mmHg 21%
    09:00 +14°C° 0 mm 1 mps 585 mmHg 19%
    10:00 +16°C° 0 mm 1 mps 586 mmHg 18%
    11:00 +19°C° 0 mm 1 mps 587 mmHg 17%
    12:00 +19°C° 0 mm 1 mps 586 mmHg 19%
    13:00 +17°C° 0 mm 2 mps 585 mmHg 20%
    14:00 +17°C° 0 mm 2 mps 585 mmHg 22%
    15:00 +15°C° 0 mm 1 mps 583 mmHg 30%
    16:00 +12°C° 0 mm 1 mps 582 mmHg 38%
    17:00 +9°C° 0 mm 1 mps 581 mmHg 46%
    18:00 +9°C° 0 mm 1 mps 581 mmHg 45%
    19:00 +8°C° 0 mm 1 mps 581 mmHg 44%
    20:00 +6°C° 0 mm 2 mps 581 mmHg 43%
    21:00 +6°C° 0 mm 2 mps 581 mmHg 40%
    22:00 +6°C° 0 mm 2 mps 581 mmHg 36%
    23:00 +6°C° 0 mm 2 mps 581 mmHg 33%
    Show more